Regional Weather Roundup
Issued by NWS

Home | Current Version | Previous Version | Graphics & Text | Print | Product List | Glossary On
Versions: 1 2 3 4 5 6 7 8 9 10 11 12 13 14 15 16 17 18 19 20 21 22 23 24 25 26 27 28 29 30 31 32 33 34 35 36 37 38 39 40 41 42 43 44 45 46 47 48 49 50
000
ASUS43 KMKX 241311
RWRWI

WISCONSIN REGIONAL WEATHER ROUNDUP
NATIONAL WEATHER SERVICE MILWAUKEE/SULLIVAN WI
800 AM CDT SUN JUL 24 2016

NOTE: "FAIR" INDICATES FEW OR NO CLOUDS BELOW 12,000 FEET WITH NO
SIGNIFICANT WEATHER AND/OR OBSTRUCTIONS TO VISIBILITY.

WIZ001-002-006>008-014>016-023>028-241400-
NORTHWEST WISCONSIN

CITY           SKY/WX    TMP DP  RH WIND       PRES   REMARKS
SUPERIOR ARPT  CLOUDY    66  66  99 W8        29.76S
ASHLAND        MOSUNNY   71  67  87 SW7       29.77R
HAYWARD        CLOUDY    68  65  90 SW8       29.81R
SIREN          SUNNY     72  68  88 W6        29.80S
CUMBERLAND       N/A     68  64  88 CALM      29.82R
RICE LAKE      PTSUNNY   69  66  90 CALM      29.83R
CHETEK         PTSUNNY   70  69  96 CALM      29.81R
LADYSMITH      CLOUDY    71  70  96 S3        29.82R
EAU CLAIRE     CLOUDY    72  70  93 CALM      29.79R
MENOMONIE      CLOUDY    73  72  98 CALM      29.81R
NEW RICHMOND   MOSUNNY   71  71  98 CALM      29.82R
OSCEOLA        SUNNY     72  72 100 CALM      29.84R
$$

WIZ003>005-009-010-017-018-241400-
NORTH CENTRAL WISCONSIN

CITY           SKY/WX    TMP DP  RH WIND       PRES   REMARKS
MANITOWISH WTR CLOUDY    68  68 100 W7        29.81R
ARBOR VITAE    SUNNY     72  69  91 SW6       29.81R
WOODRUFF       SUNNY     72  69  91 SW6       29.81R
RHINELANDER    SUNNY     73  68  84 SW7       29.82R
EAGLE RIVER    MOSUNNY   70  69  96 SW6       29.81R
LAND O LAKES   CLOUDY    70  68  95 W6        29.82R
PHILLIPS       CLOUDY    69  69 100 SW6       29.80R
TOMAHAWK       CLOUDY    69  68  96 CALM      29.81S FOG
MEDFORD        FOG       69  69 100 SE5       29.81S VSB 1/2
MERRILL        CLOUDY    71  71 100 S5        29.81F FOG
$$

WIZ029-030-035-036-043>047-241400-
CENTRAL WISCONSIN

CITY           SKY/WX    TMP DP  RH WIND       PRES   REMARKS
WAUSAU         FOG       71  71 100 S6        29.80S VSB 1/2
MOSINEE        FOG       72  72 100 S6        29.82S VSB 1/4
MARSHFIELD     FOG       72  70  93 CALM      29.81R VSB 1/2
STEVENS POINT  DRZL/FOG  70  70 100 S3        29.81S VSB 3/4
WAUPACA        RAIN      74  73  99 E5        29.81F
WAUTOMA        CLOUDY    72  71  97 SE5       29.82S
WISC RAPIDS    CLOUDY    75  72  90 S6        29.81S FOG
CAMP DOUGLAS   PTSUNNY   77  75  94 S5        29.79F
$$

WIZ011>013-019>022-031-037>040-048>050-241400-
NORTHEAST WISCONSIN

CITY           SKY/WX    TMP DP  RH WIND       PRES   REMARKS
ANTIGO         FOG       69  69 100 CALM      29.83S VSB 1/2
SHAWANO        CLOUDY    74  71  92 CALM      29.81F FOG
OCONTO         CLOUDY   N/A N/A N/A S5        29.80F
STURGEON BAY   CLOUDY    73  70  90 S7        29.83F
GREEN BAY      CLOUDY    73  73 100 S8        29.82F
MANITOWOC      RAIN      70  67  90 S14       29.85F
APPLETON       LGT RAIN  72  72 100 S8        29.81F
CLINTONVILLE   CLOUDY    72  70  94 S6        29.81F FOG
OSHKOSH        CLOUDY    73  71  93 S8        29.82F
$$

WIZ032>034-041-042-053>061-241400-
SOUTHWEST WISCONSIN

CITY           SKY/WX    TMP DP  RH WIND       PRES   REMARKS
LA CROSSE      PTSUNNY   79  75  87 SW5       29.78S HX  83
SPARTA         CLOUDY    77  74  91 SW5       29.79F
VIROQUA        CLOUDY    77  77 100 SW6       29.83S
BOSCOBEL       MOSUNNY   82  78  88 SW5       29.81R HX  91
PRAIRIE DU CHI SUNNY     82  75  80 S6        29.80F HX  88
PLATTEVILLE    SUNNY     79  79 100 SW8       29.85R HX  84
$$

WIZ056-057-062-063-064-067-068-241400-
SOUTH CENTRAL WISCONSIN

CITY           SKY/WX    TMP DP  RH WIND       PRES   REMARKS
REEDSBURG      CLOUDY    77  77  99 SW3       29.82S
BARABOO/DELLS  CLOUDY    76  73  90 SW5       29.84R
LONE ROCK      CLOUDY    79  76  90 SW6       29.82S HX  83
MINERAL POINT  PTSUNNY   79  77  94 SW7       29.86R HX  83
MADISON        CLOUDY    77  74  90 VRB5      29.84R
MIDDLETON      CLOUDY    79  75  89 SW7       29.85R HX  82
WATERTOWN      CLOUDY    75  75 100 S7        29.84F
MONROE         SUNNY     77  73  88 S13G21    29.84F
JANESVILLE     MOSUNNY   79  75  89 S8        29.85F HX  82
$$

WIZ051-052-058>065-066-070>072-241400-
SOUTHEAST WISCONSIN

CITY           SKY/WX    TMP DP  RH WIND       PRES   REMARKS
MILWAUKEE      LGT RAIN  75  71  87 SE6       29.89R
WAUKESHA       NOT AVBL
MILWAUKEE/TIMM PTSUNNY   73  70  88 SE7       29.88F
RACINE         CLOUDY    74  69  85 S6        29.91R
BURLINGTON     CLOUDY    74  73  95 S6        29.88S FOG
KENOSHA        CLOUDY    76  72  87 S12       29.90R
FOND DU LAC    CLOUDY    75  72  90 S10       29.83F
SHEBOYGAN      CLOUDY    72  69  90 S9        29.86S
WEST BEND      CLOUDY    70  68  94 SE5       29.87S
JUNEAU         CLOUDY    74  73  94 S7        29.86S
$$

LSZ147-162-241400-
LAKE SUPERIOR

STATION/POSITION TIME  TEMP    WIND        PRES    WAVE
                       AIR SEA DIR/SP/G            HT/PER
                 (UTC) (F)     (DEG/KT/KT) (MB)    (FT/S)
W MID LAKE BUOY  1250   61 57  180/  4/  4 1005.9R   1/ 3
DEVILS ISLAND    1200   62     280/  7/  7 1006.9R
PORT WING        1200   67     190/  3/  5 1007.5R
SAXON HARBOR     1200   70     190/  3/  3 1007.5R
$$

LMZ867-665-643>646-241400-
LAKE MICHIGAN

STATION/POSITION TIME  TEMP    WIND        PRES    WAVE
                       AIR SEA DIR/SP/G            HT/PER
                 (UTC) (F)     (DEG/KT/KT) (MB)    (FT/S)
CHAMBERS ISLAND  1200   72     170/  5/  8 1010.2R
S GREEN BAY BUOY 1200   73 75  190/ 12/ 14   N/A
N MID LAKE BUOY  1250   69 69  200/ 10/ 12 1009.8F   3/ 4
NORTHPORT PIER   1200   71     170/  4/ 10 1010.2R
KEWAUNEE LAKESHO 1200   61     210/  4/  8 1010.3R
SHEBOYGAN LAKESH 1300   63     170/ 14/ 15 1011.3R
PORT WASHINGTON  1200   66     160/  3/  7 1012.5F
MILWAUKEE LAKESH 1210   63      40/ 10/ 11   N/A
S MID LAKE BUOY  1250   74 72   90/ 10/ 19 1012.9R   3/ 4
KENOSHA   LAKESH 1300   64     170/ 14/ 15 1012.2R
$$

TC  - TEMPERATURE IN CELSIUS
VSB - VISIBILITY IN STATUTE MILES
WCI - WIND CHILL INDEX
HX  - HEAT INDEX




USA.gov is the U.S. government's official web portal to all federal, state and local government web resources and services.